User: anonymous
Location: Pella
(41.4080°N, 92.9160°W)
Time: 19:19:58
(UTC-05:00)
Language:

Iridium 91 - Orbit

View from above orbital plane
View from above orbital plane
View from above satellite
View from above satellite

Ground track
Ground track

The orbit data is extracted from the following two-line orbital elements,

1 27372U 02005A   14274.29448565  .00000467  00000-0  15971-3 0  5145
2 27372 086.4008 341.4729 0001790 141.8166 285.9132 14.34219785669749
Epoch (UTC): 01 October 2014 07:04:03
Eccentricity: 0.0001790
inclination: 86.4008°
perigee height: 776 km
apogee height: 779 km
right ascension of ascending node: 341.4729°
argument of perigee: 141.8166°
revolutions per day: 14.34219785
mean anomaly at epoch: 285.9132°
orbit number at epoch: 66974

The dashed part of the orbit path shows where the satellite is in the earth's shadow,  

DLR